EA1BFZ-13 Weather Reports


time (UTC)temp
C
wind
direction
speed
KPH
gust
KPH
rain 1hr
cm
rain 24hr
cm
rain mn
cm
humidity
%
barometer
mb
20260510184112 8 0 0.0 0.0 0.00 0.00 0.00 1011.0
20260510182111 8 0 1.6 6.4 0.00 0.00 0.00 1012.0
20260510181111 9 0 1.6 1.6 0.00 0.00 0.00 1012.0
20260510180111 8 0 0.0 0.0 0.00 0.00 0.00 1011.0
20260510174111 10 0 0.0 3.2 0.00 0.00 0.00 1011.0
20260510173111 10 0 1.6 3.2 0.00 0.00 0.00 1011.0
20260510172112 11 0 1.6 0.0 0.00 0.00 0.00 1011.0
20260510171112 11 0 6.4 8.0 0.00 0.00 0.00 1011.0
20260510170112 11 0 8.0 9.7 0.00 0.00 0.00 1011.0
20260510165111 10 0 0.0 6.4 0.00 0.00 0.00 1011.0
20260510164111 10 0 0.0 6.4 0.00 0.00 0.00 1011.0
20260510163111 9 0 1.6 3.2 0.00 0.00 0.00 1011.0
20260510155111 11 0 3.2 6.4 0.00 0.00 0.00 1011.0
20260510154112 11 0 4.8 6.4 0.00 0.00 0.00 1011.0
20260510153111 13 0 0.0 6.4 0.00 0.00 0.00 1011.0
20260510152112 15 0 0.0 9.7 0.00 0.00 0.00 1011.0
20260510151111 17 0 3.2 3.2 0.00 0.00 0.00 1011.0
20260510150111 15 0 4.8 8.0 0.00 0.00 0.00 1011.0
20260510145111 12 0 4.8 6.4 0.00 0.00 0.00 1011.0
20260510144111 12 0 3.2 4.8 0.00 0.00 0.00 1011.0
20260510143111 13 0 3.2 8.0 0.00 0.00 0.00 1011.0
20260510142111 15 0 3.2 6.4 0.00 0.00 0.00 1011.0
20260510141112 14 0 1.6 6.4 0.00 0.00 0.00 1012.0
20260510140111 12 0 1.6 8.0 0.00 0.00 0.00 1012.0
20260510135112 15 0 4.8 6.4 0.00 0.00 0.00 1012.0
20260510134113 11 0 3.2 1.6 0.00 0.00 0.00 1012.0
20260510133112 11 0 3.2 6.4 0.00 0.00 0.00 1012.0
20260510132112 12 0 6.4 6.4 0.00 0.00 0.00 1012.0
20260510131111 12 0 1.6 4.8 0.00 0.00 0.00 1012.0
20260510125111 15 0 4.8 12.9 0.00 0.00 0.00 1011.0
20260510124112 13 0 6.4 4.8 0.00 0.00 0.00 1011.0
20260510123112 9 0 3.2 8.0 0.00 0.00 0.00 1012.0
20260510122112 8 0 12.9 22.5 0.00 0.00 0.00 1012.0
20260510121112 10 0 9.7 16.1 0.00 0.00 0.00 1012.0
20260510120113 11 0 9.7 12.9 0.00 0.00 0.00 1011.0
20260510115112 12 0 8.0 11.3 0.00 0.00 0.00 1011.0
20260510114112 12 0 11.3 16.1 0.00 0.00 0.00 1011.0
20260510113112 13 0 9.7 14.5 0.00 0.00 0.00 1011.0
20260510112112 14 0 3.2 6.4 0.00 0.00 0.00 1011.0
20260510111112 15 0 8.0 3.2 0.00 0.00 0.00 1011.0
20260510110112 15 0 14.5 14.5 0.00 0.00 0.00 1011.0
20260510105112 17 0 11.3 8.0 0.00 0.00 0.00 1011.0
20260510104112 16 0 9.7 11.3 0.00 0.00 0.00 1011.0
20260510103112 15 0 4.8 11.3 0.00 0.00 0.00 1012.0
20260510102112 15 0 4.8 6.4 0.00 0.00 0.00 1012.0
20260510101112 16 0 8.0 14.5 0.00 0.00 0.00 1012.0
20260510100112 18 0 8.0 11.3 0.00 0.00 0.00 1012.0
20260510093112 15 0 8.0 12.9 0.00 0.00 0.00 1012.0
20260510092112 15 0 12.9 12.9 0.00 0.00 0.00 1012.0
20260510091112 13 0 8.0 12.9 0.00 0.00 0.00 1012.0
20260510090112 13 0 8.0 8.0 0.00 0.00 0.00 1012.0
20260510085112 12 0 3.2 11.3 0.00 0.00 0.00 1012.0
20260510084112 12 0 8.0 8.0 0.00 0.00 0.00 1012.0
20260510083112 12 0 17.7 12.9 0.00 0.00 0.00 1012.0
20260510082112 12 0 8.0 9.7 0.00 0.00 0.00 1013.0
20260510081112 12 0 1.6 4.8 0.00 0.00 0.00 1012.0
20260510080112 11 0 3.2 4.8 0.00 0.00 0.00 1013.0
20260510075112 10 0 6.4 12.9 0.00 0.00 0.00 1013.0
20260510074112 10 0 4.8 8.0 0.00 0.00 0.00 1013.0
20260510073112 10 0 0.0 4.8 0.00 0.00 0.00 1013.0
20260510072112 10 0 3.2 3.2 0.00 0.00 0.00 1012.0
20260510071112 9 0 6.4 6.4 0.00 0.00 0.00 1012.0
20260510070112 8 0 4.8 6.4 0.00 0.00 0.00 1012.0
20260510065112 8 0 0.0 4.8 0.00 0.00 0.00 1012.0
20260510064112 8 0 3.2 3.2 0.00 0.00 0.00 1012.0
20260510063113 8 0 0.0 3.2 0.00 0.00 0.00 1012.0
20260510062112 8 0 1.6 3.2 0.00 0.00 0.00 1012.0
20260510061112 8 0 1.6 4.8 0.00 0.00 0.00 1012.0
20260510060112 8 0 1.6 3.2 0.00 0.00 0.00 1012.0
20260510055112 8 0 0.0 1.6 0.00 0.00 0.00 1012.0
20260510054112 7 0 0.0 1.6 0.00 0.00 0.00 1012.0
20260510053113 7 0 0.0 3.2 0.00 0.00 0.00 1012.0
20260510052112 7 0 0.0 0.0 0.00 0.00 0.00 1012.0
20260510051112 7 0 0.0 0.0 0.00 0.00 0.00 1012.0
20260510050112 7 0 0.0 0.0 0.00 0.00 0.00 1012.0
20260510045112 7 0 0.0 0.0 0.00 0.00 0.00 1012.0
20260510044113 7 0 0.0 0.0 0.00 0.00 0.00 1012.0
20260510043112 7 0 0.0 0.0 0.00 0.00 0.00 1012.0
20260510042112 6 0 0.0 0.0 0.00 0.00 0.00 1012.0
20260510041113 6 0 0.0 0.0 0.00 0.00 0.00 1012.0
20260510040112 6 0 0.0 0.0 0.00 0.00 0.00 1012.0
20260510035112 6 0 0.0 1.6 0.00 0.00 0.00 1012.0
20260510034112 6 0 0.0 0.0 0.00 0.00 0.00 1012.0
20260510033112 5 0 0.0 0.0 0.00 0.00 0.00 1012.0
20260510032112 6 0 0.0 0.0 0.00 0.00 0.00 1012.0
20260510031113 6 0 0.0 0.0 0.00 0.00 0.00 1012.0
20260510030113 6 0 0.0 0.0 0.00 0.00 0.00 1012.0
20260510025113 6 0 0.0 0.0 0.00 0.00 0.00 1012.0
20260510024113 6 0 0.0 1.6 0.00 0.00 0.00 1012.0
20260510023113 6 0 0.0 0.0 0.00 0.00 0.00 1012.0
20260510022113 6 0 0.0 0.0 0.00 0.00 0.00 1012.0
20260510021112 7 0 0.0 0.0 0.00 0.00 0.00 1012.0
20260510020112 7 0 0.0 0.0 0.00 0.00 0.00 1012.0
20260510015112 7 0 0.0 1.6 0.00 0.00 0.00 1012.0
20260510014112 7 0 0.0 1.6 0.00 0.00 0.00 1012.0
20260510013113 7 0 3.2 3.2 0.00 0.00 0.00 1012.0
20260510012112 7 0 0.0 1.6 0.00 0.00 0.00 1012.0
20260510011113 7 0 0.0 1.6 0.00 0.00 0.00 1012.0
20260510010113 7 0 0.0 0.0 0.00 0.00 0.00 1012.0
20260510005112 7 0 0.0 1.6 0.00 0.00 0.00 1012.0
20260510004112 7 0 0.0 0.0 0.00 0.00 0.00 1012.0
20260510003112 7 0 0.0 1.6 0.00 0.00 0.00 1012.0
20260510002112 7 0 0.0 0.0 0.00 0.00 0.00 1012.0
20260510001113 8 0 0.0 1.6 0.00 0.00 0.00 1012.0
20260510000113 8 0 0.0 3.2 0.00 0.00 0.00 1012.0
20260509235112 8 0 6.4 6.4 0.00 0.00 0.00 1012.0
20260509234112 8 0 3.2 3.2 0.00 0.00 0.00 1012.0
20260509233112 8 0 0.0 0.0 0.00 0.00 0.00 1012.0
20260509232112 8 0 1.6 3.2 0.00 0.00 0.00 1012.0
20260509231112 8 0 1.6 8.0 0.00 0.00 0.00 1012.0
20260509230112 9 0 3.2 6.4 0.00 0.00 0.00 1012.0
20260509225112 10 0 3.2 4.8 0.00 0.00 0.00 1012.0
20260509224112 10 0 3.2 6.4 0.00 0.00 0.00 1012.0
20260509223112 9 0 0.0 3.2 0.00 0.00 0.00 1012.0
20260509222112 9 0 1.6 3.2 0.00 0.00 0.00 1012.0
20260509221112 8 0 0.0 3.2 0.00 0.00 0.00 1012.0
20260509220112 8 0 1.6 1.6 0.00 0.00 0.00 1012.0
20260509215112 8 0 6.4 8.0 0.00 0.00 0.00 1012.0
20260509214112 9 0 0.0 3.2 0.00 0.00 0.00 1012.0
20260509212112 10 0 0.0 3.2 0.00 0.00 0.00 1012.0
20260509211112 10 0 1.6 4.8 0.00 0.00 0.00 1012.0
20260509210112 10 0 3.2 0.0 0.00 0.00 0.00 1012.0
20260509205112 10 0 1.6 4.8 0.00 0.00 0.00 1012.0
20260509204112 10 0 1.6 3.2 0.00 0.00 0.00 1012.0
20260509203112 10 0 0.0 4.8 0.00 0.00 0.00 1012.0
20260509202112 10 0 1.6 3.2 0.00 0.00 0.00 1012.0
20260509201112 10 0 1.6 6.4 0.00 0.00 0.00 1012.0
20260509200112 10 0 1.6 3.2 0.00 0.00 0.00 1011.0
20260509195112 10 0 1.6 3.2 0.00 0.00 0.00 1011.0
20260509194112 10 0 3.2 4.8 0.00 0.00 0.00 1011.0
20260509193112 11 0 1.6 1.6 0.00 0.00 0.00 1011.0
20260509192112 11 0 4.8 3.2 0.00 0.00 0.00 1011.0
20260509191112 11 0 0.0 4.8 0.00 0.00 0.00 1011.0
20260509190112 11 0 1.6 6.4 0.00 0.00 0.00 1011.0
20260509185112 11 0 1.6 4.8 0.00 0.00 0.00 1011.0